Location: Newark
(23.3970°S, 47.6010°W)
Time: 14:18:25
(UTC+00:00)

Tiros 1 despin weight - Pass Details

Date: 22 February 2020
Orbit: 593 x 642 km, 48.2° (Epoch: 06 April)

Event Time Altitude Azimuth Distance (km) Brightness Sun altitude
Rises 20:55:45 0° 204° (SSW) 2,965 ? 10.4°
Reaches altitude 10° 20:59:30 10° 174° (S) 2,047 ? 9.6°
Maximum altitude 21:01:30 12° 149° (SSE) 1,878 ? 9.1°
Drops below altitude 10° 21:03:30 10° 123° (ESE) 2,035 ? 8.6°
Sets 21:07:12 0° 94° (E) 2,928 ? 7.8°
